Time,TemperatureF,DewpointF,PressureIn,WindDirection,WindDirectionDegrees,WindSpeedMPH,WindSpeedGustMPH,Humidity,HourlyPrecipIn,Conditions,Clouds,dailyrainin,SolarRadiationWatts/m^2,SoftwareType,DateUTC
2013-01-25 00:01:00,63.0,44.0,-100.00,North,349,5.0,8.0,50,0.00,,,0.00,0.000000,,2013-01-25 08:01:00,
2013-01-25 00:11:00,63.0,44.0,-100.00,North,349,5.0,8.0,50,0.00,,,0.00,0.000000,,2013-01-25 08:11:00,
2013-01-25 00:21:00,63.0,44.0,-100.00,North,349,5.0,8.0,50,0.00,,,0.00,0.000000,,2013-01-25 08:21:00,
2013-01-25 00:52:00,61.0,44.0,-100.00,North,3,0.0,8.0,54,0.00,,,0.00,0.000000,,2013-01-25 08:52:00,
2013-01-25 01:01:00,61.0,44.0,-100.00,North,3,0.0,8.0,54,0.00,,,0.00,0.000000,,2013-01-25 09:01:00,
2013-01-25 01:11:00,61.0,44.0,-100.00,North,3,0.0,8.0,54,0.00,,,0.00,0.000000,,2013-01-25 09:11:00,
2013-01-25 01:21:00,61.0,44.0,-100.00,North,3,0.0,8.0,54,0.00,,,0.00,0.000000,,2013-01-25 09:21:00,
2013-01-25 01:52:00,60.0,46.0,-100.00,North,10,2.0,5.0,59,0.00,,,0.00,0.000000,,2013-01-25 09:52:00,
2013-01-25 02:01:00,60.0,46.0,-100.00,North,10,2.0,5.0,59,0.00,,,0.00,0.000000,,2013-01-25 10:01:00,
2013-01-25 02:11:00,60.0,46.0,-100.00,North,10,2.0,5.0,59,0.00,,,0.00,0.000000,,2013-01-25 10:11:00,
2013-01-25 02:21:00,60.0,46.0,-100.00,North,10,2.0,5.0,59,0.00,,,0.00,0.000000,,2013-01-25 10:21:00,
2013-01-25 02:52:00,60.0,47.0,-100.00,North,10,4.0,10.0,61,0.00,,,0.00,0.000000,,2013-01-25 10:52:00,
2013-01-25 03:02:00,60.0,47.0,-100.00,North,10,4.0,10.0,61,0.00,,,0.00,0.000000,,2013-01-25 11:02:00,
2013-01-25 03:11:00,60.0,47.0,-100.00,North,10,4.0,10.0,61,0.00,,,0.00,0.000000,,2013-01-25 11:11:00,
2013-01-25 03:21:00,60.0,47.0,-100.00,North,10,4.0,10.0,61,0.00,,,0.00,0.000000,,2013-01-25 11:21:00,
2013-01-25 03:52:00,61.0,49.0,-100.00,NW,308,3.0,8.0,64,0.00,,,0.00,0.000000,,2013-01-25 11:52:00,
2013-01-25 04:02:00,61.0,49.0,-100.00,NW,308,3.0,8.0,64,0.00,,,0.00,0.000000,,2013-01-25 12:02:00,
2013-01-25 04:11:00,61.0,49.0,-100.00,NW,308,3.0,8.0,64,0.00,,,0.00,0.000000,,2013-01-25 12:11:00,
2013-01-25 04:21:00,61.0,49.0,-100.00,NW,308,3.0,8.0,64,0.00,,,0.00,0.000000,,2013-01-25 12:21:00,
2013-01-25 04:53:00,61.0,49.0,-100.00,NNE,20,5.0,7.0,65,0.00,,,0.00,0.000000,,2013-01-25 12:53:00,
2013-01-25 05:02:00,61.0,49.0,-100.00,NNE,20,5.0,7.0,65,0.00,,,0.00,0.000000,,2013-01-25 13:02:00,
2013-01-25 05:11:00,61.0,49.0,-100.00,NNE,20,5.0,7.0,65,0.00,,,0.00,0.000000,,2013-01-25 13:11:00,
2013-01-25 05:21:00,61.0,49.0,-100.00,NNE,20,5.0,7.0,65,0.00,,,0.00,0.000000,,2013-01-25 13:21:00,
2013-01-25 05:52:00,61.0,49.0,-100.00,NNE,21,0.0,6.0,65,0.00,,,0.00,0.000000,,2013-01-25 13:52:00,
2013-01-25 06:02:00,61.0,49.0,-100.00,NNE,21,0.0,6.0,65,0.00,,,0.00,0.000000,,2013-01-25 14:02:00,
2013-01-25 06:12:00,61.0,49.0,-100.00,NNE,21,0.0,6.0,65,0.00,,,0.00,0.000000,,2013-01-25 14:12:00,
2013-01-25 06:22:00,61.0,49.0,-100.00,NNE,21,0.0,6.0,65,0.00,,,0.00,0.000000,,2013-01-25 14:22:00,
2013-01-25 06:53:00,61.0,50.0,-100.00,North,356,3.0,8.0,66,0.00,,,0.00,0.000000,,2013-01-25 14:53:00,
2013-01-25 07:02:00,61.0,50.0,-100.00,North,356,3.0,8.0,66,0.00,,,0.00,0.000000,,2013-01-25 15:02:00,
2013-01-25 07:12:00,61.0,50.0,-100.00,North,356,3.0,8.0,66,0.00,,,0.00,0.000000,,2013-01-25 15:12:00,
2013-01-25 07:22:00,61.0,50.0,-100.00,North,356,3.0,8.0,66,0.00,,,0.00,0.000000,,2013-01-25 15:22:00,
2013-01-25 07:53:00,62.0,51.0,-100.00,North,0,8.0,13.0,66,0.00,,,0.00,25.000000,,2013-01-25 15:53:00,
2013-01-25 08:03:00,62.0,51.0,-100.00,North,0,8.0,13.0,66,0.00,,,0.00,25.000000,,2013-01-25 16:03:00,
2013-01-25 08:11:00,62.0,51.0,-100.00,North,0,8.0,13.0,66,0.00,,,0.00,25.000000,,2013-01-25 16:11:00,
2013-01-25 08:22:00,62.0,51.0,-100.00,North,0,8.0,13.0,66,0.00,,,0.00,25.000000,,2013-01-25 16:22:00,
2013-01-25 08:53:00,63.0,50.0,-100.00,NNW,339,7.0,11.0,63,0.00,,,0.00,51.000000,,2013-01-25 16:53:00,
2013-01-25 09:02:00,63.0,50.0,-100.00,NNW,339,7.0,11.0,63,0.00,,,0.00,51.000000,,2013-01-25 17:02:00,
2013-01-25 09:11:00,63.0,50.0,-100.00,NNW,339,7.0,11.0,63,0.00,,,0.00,51.000000,,2013-01-25 17:11:00,
2013-01-25 09:22:00,63.0,50.0,-100.00,NNW,339,7.0,11.0,63,0.00,,,0.00,51.000000,,2013-01-25 17:22:00,
2013-01-25 09:53:00,63.0,48.0,-100.00,NNW,340,9.0,14.0,57,0.00,,,0.00,139.000000,,2013-01-25 17:53:00,
2013-01-25 10:02:00,63.0,48.0,-100.00,NNW,340,9.0,14.0,57,0.00,,,0.00,139.000000,,2013-01-25 18:02:00,
2013-01-25 10:11:00,63.0,48.0,-100.00,NNW,340,9.0,14.0,57,0.00,,,0.00,139.000000,,2013-01-25 18:11:00,
2013-01-25 10:23:00,63.0,48.0,-100.00,NNW,340,9.0,14.0,57,0.00,,,0.00,139.000000,,2013-01-25 18:23:00,
2013-01-25 10:52:00,66.0,48.0,-100.00,NNW,340,9.0,18.0,53,0.00,,,0.00,299.000000,,2013-01-25 18:52:00,
2013-01-25 11:02:00,66.0,48.0,-100.00,NNW,340,9.0,18.0,53,0.00,,,0.00,299.000000,,2013-01-25 19:02:00,
2013-01-25 11:12:00,66.0,48.0,-100.00,NNW,340,9.0,18.0,53,0.00,,,0.00,299.000000,,2013-01-25 19:12:00,
2013-01-25 11:21:00,66.0,48.0,-100.00,NNW,340,9.0,18.0,53,0.00,,,0.00,299.000000,,2013-01-25 19:21:00,
2013-01-25 11:53:00,68.0,47.0,-100.00,NNW,342,10.0,15.0,47,0.00,,,0.00,436.000000,,2013-01-25 19:53:00,
2013-01-25 12:02:00,68.0,47.0,-100.00,NNW,342,10.0,15.0,47,0.00,,,0.00,436.000000,,2013-01-25 20:02:00,
2013-01-25 12:12:00,68.0,47.0,-100.00,NNW,342,10.0,15.0,47,0.00,,,0.00,436.000000,,2013-01-25 20:12:00,
2013-01-25 12:22:00,68.0,47.0,-100.00,NNW,342,10.0,15.0,47,0.00,,,0.00,436.000000,,2013-01-25 20:22:00,
2013-01-25 12:52:00,71.0,47.0,-100.00,NW,320,9.0,17.0,43,0.00,,,0.00,437.000000,,2013-01-25 20:52:00,
2013-01-25 13:02:00,71.0,47.0,-100.00,NW,320,9.0,17.0,43,0.00,,,0.00,437.000000,,2013-01-25 21:02:00,
2013-01-25 13:11:00,71.0,47.0,-100.00,NW,320,9.0,17.0,43,0.00,,,0.00,437.000000,,2013-01-25 21:11:00,
2013-01-25 13:22:00,71.0,47.0,-100.00,NW,320,9.0,17.0,43,0.00,,,0.00,437.000000,,2013-01-25 21:22:00,
2013-01-25 13:52:00,68.0,45.0,-100.00,NW,318,9.0,15.0,44,0.00,,,0.00,212.000000,,2013-01-25 21:52:00,
2013-01-25 14:02:00,68.0,45.0,-100.00,NW,318,9.0,15.0,44,0.00,,,0.00,212.000000,,2013-01-25 22:02:00,
2013-01-25 14:11:00,68.0,45.0,-100.00,NW,318,9.0,15.0,44,0.00,,,0.00,212.000000,,2013-01-25 22:11:00,
2013-01-25 14:22:00,68.0,45.0,-100.00,NW,318,9.0,15.0,44,0.00,,,0.00,212.000000,,2013-01-25 22:22:00,
2013-01-25 14:52:00,66.0,48.0,-100.00,NW,314,7.0,14.0,52,0.00,,,0.00,83.000000,,2013-01-25 22:52:00,
2013-01-25 15:02:00,66.0,48.0,-100.00,NW,314,7.0,14.0,52,0.00,,,0.00,83.000000,,2013-01-25 23:02:00,
2013-01-25 15:11:00,66.0,48.0,-100.00,NW,314,7.0,14.0,52,0.00,,,0.00,83.000000,,2013-01-25 23:11:00,
2013-01-25 15:22:00,66.0,48.0,-100.00,NW,314,7.0,14.0,52,0.00,,,0.00,83.000000,,2013-01-25 23:22:00,
2013-01-25 15:52:00,64.0,50.0,-100.00,NNW,335,11.0,15.0,60,0.00,,,0.00,77.000000,,2013-01-25 23:52:00,
2013-01-25 16:01:00,64.0,50.0,-100.00,NNW,335,11.0,15.0,60,0.00,,,0.00,77.000000,,2013-01-26 00:01:00,
2013-01-25 16:11:00,64.0,50.0,-100.00,NNW,335,11.0,15.0,60,0.00,,,0.00,77.000000,,2013-01-26 00:11:00,
2013-01-25 16:22:00,64.0,50.0,-100.00,NNW,335,11.0,15.0,60,0.00,,,0.00,77.000000,,2013-01-26 00:22:00,
2013-01-25 17:11:00,64.0,50.0,-100.00,NNW,329,7.0,13.0,61,0.00,,,-99.99,49.000000,,2013-01-26 01:11:00,
2013-01-25 17:22:00,64.0,50.0,-100.00,NNW,329,7.0,13.0,61,0.00,,,-99.99,49.000000,,2013-01-26 01:22:00,
2013-01-25 17:52:00,65.0,53.0,-100.00,NNW,332,7.0,16.0,64,0.00,,,0.00,3.000000,,2013-01-26 01:52:00,
2013-01-25 18:01:00,65.0,53.0,-100.00,NNW,332,7.0,16.0,64,0.00,,,0.00,3.000000,,2013-01-26 02:01:00,
2013-01-25 18:11:00,65.0,53.0,-100.00,NNW,332,7.0,16.0,64,0.00,,,0.00,3.000000,,2013-01-26 02:11:00,
2013-01-25 18:22:00,65.0,53.0,-100.00,NNW,332,7.0,16.0,64,0.00,,,0.00,3.000000,,2013-01-26 02:22:00,
2013-01-25 18:52:00,63.0,54.0,-100.00,NNW,334,9.0,11.0,72,0.00,,,0.00,0.000000,,2013-01-26 02:52:00,
2013-01-25 19:01:00,63.0,54.0,-100.00,NNW,334,9.0,11.0,72,0.00,,,0.00,0.000000,,2013-01-26 03:01:00,
2013-01-25 19:11:00,63.0,54.0,-100.00,NNW,334,9.0,11.0,72,0.00,,,0.00,0.000000,,2013-01-26 03:11:00,
2013-01-25 19:21:00,63.0,54.0,-100.00,NNW,334,9.0,11.0,72,0.00,,,0.00,0.000000,,2013-01-26 03:21:00,
2013-01-25 19:52:00,60.0,57.0,-100.00,NW,308,7.0,14.0,89,0.10,,,0.10,0.000000,,2013-01-26 03:52:00,
2013-01-25 20:01:00,60.0,57.0,-100.00,NW,308,7.0,14.0,89,0.10,,,0.10,0.000000,,2013-01-26 04:01:00,
2013-01-25 20:12:00,60.0,57.0,-100.00,NW,308,7.0,14.0,89,0.10,,,0.10,0.000000,,2013-01-26 04:12:00,
2013-01-25 20:21:00,60.0,57.0,-100.00,NW,308,7.0,14.0,89,0.10,,,0.10,0.000000,,2013-01-26 04:21:00,
2013-01-25 20:52:00,58.0,58.0,-100.00,North,349,12.0,17.0,99,0.15,,,0.25,0.000000,,2013-01-26 04:52:00,
2013-01-25 21:03:00,58.0,58.0,-100.00,North,349,12.0,17.0,99,0.15,,,0.25,0.000000,,2013-01-26 05:03:00,
2013-01-25 21:12:00,58.0,58.0,-100.00,North,349,12.0,17.0,99,0.15,,,0.25,0.000000,,2013-01-26 05:12:00,
2013-01-25 21:22:00,58.0,58.0,-100.00,North,349,12.0,17.0,99,0.15,,,0.25,0.000000,,2013-01-26 05:22:00,
2013-01-25 21:52:00,57.0,57.0,-100.00,North,356,4.0,17.0,100,0.10,,,0.35,0.000000,,2013-01-26 05:52:00,
2013-01-25 22:02:00,57.0,57.0,-100.00,North,356,4.0,17.0,100,0.10,,,0.35,0.000000,,2013-01-26 06:02:00,
2013-01-25 22:12:00,57.0,57.0,-100.00,North,356,4.0,17.0,100,0.10,,,0.35,0.000000,,2013-01-26 06:12:00,
2013-01-25 22:21:00,57.0,57.0,-100.00,North,356,4.0,17.0,100,0.10,,,0.35,0.000000,,2013-01-26 06:21:00,
2013-01-25 22:52:00,57.0,57.0,-100.00,NNE,12,7.0,14.0,100,0.16,,,0.51,0.000000,,2013-01-26 06:52:00,
2013-01-25 23:01:00,57.0,57.0,-100.00,NNE,12,7.0,14.0,100,0.16,,,0.51,0.000000,,2013-01-26 07:01:00,
2013-01-25 23:11:00,57.0,57.0,-100.00,NNE,12,7.0,14.0,100,0.16,,,0.51,0.000000,,2013-01-26 07:11:00,
2013-01-25 23:21:00,57.0,57.0,-100.00,NNE,12,7.0,14.0,100,0.16,,,0.51,0.000000,,2013-01-26 07:21:00,
2013-01-25 23:52:00,59.0,59.0,-100.00,WNW,302,5.0,10.0,100,0.17,,,0.68,0.000000,,2013-01-26 07:52:00,